Location: Newark
(48.8833°N, 0.9236°W)
Time: 18:11:22
(UTC+00:00)

Tiros 1 despin weight - Pass Details

Date: 23 November 2019
Orbit: 594 x 642 km, 48.2° (Epoch: 14 December)

Event Time Altitude Azimuth Distance (km) Brightness Sun altitude
Rises 15:19:10 0° 277° (W) 2,832 ? 6.6°
Reaches altitude 10° 15:21:27 10° 275° (W) 1,932 ? 6.3°
Maximum altitude 15:25:51 74° 192° (SSW) 627 ? 5.8°
Drops below altitude 10° 15:30:19 10° 107° (ESE) 1,949 ? 5.2°
Sets 15:32:38 0° 105° (ESE) 2,859 ? 4.9°
